EN

Hourly Weather Bartkowa-Posadowej

Today, 23 July, Friday

Time Temperature Precipitation Wind Pressure Humidity
00:00 +14°C° 0 mm 1 mps 732 mmHg 89%
01:00 +14°C° 0 mm 1 mps 732 mmHg 90%
02:00 +14°C° 0 mm 1 mps 732 mmHg 90%
03:00 +14°C° 0 mm 1 mps 732 mmHg 90%
04:00 +13°C° 0 mm 1 mps 731 mmHg 90%
05:00 +15°C° 0 mm 1 mps 732 mmHg 85%
06:00 +16°C° 0 mm 0 mps 732 mmHg 80%
07:00 +17°C° 0 mm 0 mps 732 mmHg 74%
08:00 +18°C° 0 mm 0 mps 732 mmHg 70%
09:00 +22°C° 0 mm 1 mps 732 mmHg 65%
10:00 +23°C° 0 mm 1 mps 732 mmHg 60%
11:00 +24°C° 0.1 mm 1 mps 731 mmHg 58%
12:00 +24°C° 0.1 mm 2 mps 731 mmHg 56%
13:00 +25°C° 0 mm 2 mps 731 mmHg 54%
14:00 +24°C° 0.2 mm 1 mps 731 mmHg 59%
15:00 +24°C° 0.2 mm 1 mps 731 mmHg 63%
16:00 +23°C° 0.2 mm 1 mps 731 mmHg 68%
17:00 +22°C° 0.1 mm 1 mps 730 mmHg 72%
18:00 +21°C° 0.1 mm 1 mps 730 mmHg 76%
19:00 +20°C° 0.1 mm 1 mps 730 mmHg 80%
20:00 +19°C° 0 mm 1 mps 730 mmHg 81%
21:00 +18°C° 0 mm 1 mps 730 mmHg 83%
22:00 +16°C° 0 mm 1 mps 731 mmHg 84%
23:00 +16°C° 0 mm 1 mps 730 mmHg 84%

Tomorrow, 24 July, Saturday

Time Temperature Precipitation Wind Pressure Humidity
00:00 +16°C° 0 mm 1 mps 730 mmHg 84%
01:00 +16°C° 0 mm 1 mps 730 mmHg 84%
02:00 +16°C° 0 mm 1 mps 730 mmHg 84%
03:00 +16°C° 0 mm 1 mps 730 mmHg 85%
04:00 +16°C° 0 mm 1 mps 730 mmHg 85%
05:00 +18°C° 0 mm 1 mps 730 mmHg 82%
06:00 +19°C° 0 mm 1 mps 730 mmHg 79%
07:00 +20°C° 0 mm 1 mps 730 mmHg 76%
08:00 +22°C° 0 mm 1 mps 730 mmHg 68%
09:00 +24°C° 0 mm 1 mps 730 mmHg 61%
10:00 +26°C° 0 mm 2 mps 730 mmHg 54%
11:00 +26°C° 0 mm 2 mps 730 mmHg 52%
12:00 +27°C° 0 mm 2 mps 730 mmHg 50%
13:00 +27°C° 0 mm 3 mps 730 mmHg 48%
14:00 +27°C° 0 mm 3 mps 730 mmHg 51%
15:00 +27°C° 0 mm 3 mps 730 mmHg 54%
16:00 +26°C° 0 mm 3 mps 730 mmHg 57%
17:00 +25°C° 0 mm 2 mps 729 mmHg 63%
18:00 +23°C° 0 mm 2 mps 729 mmHg 69%
19:00 +21°C° 0 mm 2 mps 729 mmHg 76%
20:00 +20°C° 0 mm 2 mps 729 mmHg 76%
21:00 +19°C° 0 mm 2 mps 729 mmHg 77%
22:00 +18°C° 0 mm 2 mps 729 mmHg 77%
23:00 +18°C° 0 mm 2 mps 729 mmHg 74%

Day after tomorrow, 25 July, Sunday

Time Temperature Precipitation Wind Pressure Humidity
00:00 +19°C° 0 mm 2 mps 729 mmHg 72%
01:00 +20°C° 0 mm 1 mps 729 mmHg 69%
02:00 +18°C° 0 mm 2 mps 729 mmHg 69%
03:00 +18°C° 0 mm 2 mps 729 mmHg 69%
04:00 +17°C° 0 mm 2 mps 729 mmHg 69%
05:00 +19°C° 0 mm 2 mps 729 mmHg 66%
06:00 +20°C° 0 mm 2 mps 729 mmHg 63%
07:00 +23°C° 0 mm 2 mps 729 mmHg 60%
08:00 +25°C° 0 mm 2 mps 729 mmHg 53%
09:00 +27°C° 0 mm 3 mps 729 mmHg 47%
10:00 +29°C° 0 mm 3 mps 729 mmHg 40%
11:00 +29°C° 0 mm 3 mps 729 mmHg 38%
12:00 +30°C° 0 mm 3 mps 729 mmHg 36%
13:00 +31°C° 0 mm 3 mps 729 mmHg 34%
14:00 +29°C° 0 mm 3 mps 729 mmHg 40%
15:00 +28°C° 0 mm 3 mps 729 mmHg 46%
16:00 +27°C° 0 mm 2 mps 729 mmHg 52%
17:00 +26°C° 0 mm 2 mps 729 mmHg 55%
18:00 +25°C° 0 mm 2 mps 728 mmHg 57%
19:00 +23°C° 0 mm 2 mps 728 mmHg 60%
20:00 +23°C° 0 mm 2 mps 728 mmHg 61%
21:00 +21°C° 0 mm 2 mps 728 mmHg 63%
22:00 +20°C° 0 mm 2 mps 728 mmHg 65%
23:00 +20°C° 0.1 mm 2 mps 728 mmHg 68%

26 July, Monday

Time Temperature Precipitation Wind Pressure Humidity
00:00 +19°C° 0.1 mm 3 mps 728 mmHg 71%
01:00 +18°C° 0.1 mm 3 mps 728 mmHg 74%
02:00 +18°C° 0.1 mm 2 mps 728 mmHg 74%
03:00 +18°C° 0.1 mm 2 mps 727 mmHg 75%
04:00 +18°C° 0.1 mm 2 mps 727 mmHg 75%
05:00 +19°C° 0 mm 2 mps 728 mmHg 72%
06:00 +20°C° 0 mm 2 mps 728 mmHg 70%
07:00 +23°C° 0 mm 2 mps 728 mmHg 67%
08:00 +25°C° 0 mm 3 mps 728 mmHg 59%
09:00 +27°C° 0 mm 4 mps 728 mmHg 52%
10:00 +29°C° 0 mm 5 mps 728 mmHg 44%
11:00 +30°C° 0 mm 5 mps 728 mmHg 45%
12:00 +30°C° 0 mm 5 mps 728 mmHg 45%
13:00 +32°C° 0 mm 5 mps 728 mmHg 45%
14:00 +30°C° 0.1 mm 4 mps 728 mmHg 50%
15:00 +29°C° 0.1 mm 3 mps 728 mmHg 54%
16:00 +28°C° 0.1 mm 3 mps 728 mmHg 59%
17:00 +27°C° 0 mm 2 mps 728 mmHg 65%
18:00 +26°C° 0 mm 1 mps 728 mmHg 71%
19:00 +22°C° 0 mm 0 mps 728 mmHg 78%
20:00 +23°C° 0 mm 1 mps 728 mmHg 80%
21:00 +22°C° 0 mm 1 mps 728 mmHg 83%
22:00 +22°C° 0 mm 1 mps 728 mmHg 85%
23:00 +21°C° 0.1 mm 1 mps 728 mmHg 85%

27 July, Tuesday

Time Temperature Precipitation Wind Pressure Humidity
00:00 +20°C° 0.1 mm 2 mps 728 mmHg 86%
01:00 +20°C° 0.1 mm 2 mps 728 mmHg 86%
02:00 +20°C° 0.1 mm 2 mps 728 mmHg 87%
03:00 +19°C° 0.1 mm 2 mps 728 mmHg 88%
04:00 +19°C° 0.1 mm 2 mps 728 mmHg 89%
05:00 +21°C° 0 mm 1 mps 728 mmHg 85%
06:00 +22°C° 0 mm 1 mps 728 mmHg 81%
07:00 +24°C° 0 mm 1 mps 729 mmHg 77%
08:00 +26°C° 0 mm 1 mps 729 mmHg 69%
09:00 +28°C° 0 mm 1 mps 729 mmHg 61%
10:00 +30°C° 0 mm 1 mps 729 mmHg 53%
11:00 +31°C° 0 mm 2 mps 729 mmHg 49%
12:00 +32°C° 0 mm 2 mps 728 mmHg 46%
13:00 +34°C° 0 mm 3 mps 728 mmHg 42%
14:00 +34°C° 0 mm 3 mps 728 mmHg 43%
15:00 +34°C° 0 mm 2 mps 728 mmHg 45%
16:00 +32°C° 0 mm 2 mps 728 mmHg 46%
17:00 +31°C° 0 mm 2 mps 728 mmHg 52%
18:00 +29°C° 0 mm 2 mps 727 mmHg 58%
19:00 +27°C° 0 mm 2 mps 727 mmHg 63%
20:00 +26°C° 0 mm 2 mps 727 mmHg 65%
21:00 +24°C° 0 mm 2 mps 727 mmHg 67%
22:00 +23°C° 0 mm 1 mps 727 mmHg 69%
23:00 +22°C° 0 mm 1 mps 727 mmHg 71%

28 July, Wednesday

Time Temperature Precipitation Wind Pressure Humidity
00:00 +22°C° 0 mm 1 mps 727 mmHg 74%
01:00 +21°C° 0 mm 1 mps 727 mmHg 77%
02:00 +20°C° 0 mm 1 mps 727 mmHg 80%
03:00 +19°C° 0 mm 2 mps 727 mmHg 83%
04:00 +18°C° 0 mm 2 mps 727 mmHg 85%
05:00 +19°C° 0 mm 2 mps 727 mmHg 85%
06:00 +20°C° 0 mm 2 mps 728 mmHg 84%
07:00 +21°C° 0 mm 2 mps 728 mmHg 84%
08:00 +22°C° 0.1 mm 3 mps 729 mmHg 79%
09:00 +23°C° 0.1 mm 4 mps 729 mmHg 75%
10:00 +25°C° 0.1 mm 4 mps 729 mmHg 70%
11:00 +25°C° 0.2 mm 4 mps 729 mmHg 67%
12:00 +26°C° 0.2 mm 4 mps 730 mmHg 65%
13:00 +26°C° 0.2 mm 4 mps 730 mmHg 62%
14:00 +26°C° 0.1 mm 4 mps 730 mmHg 64%
15:00 +25°C° 0.1 mm 4 mps 730 mmHg 65%
16:00 +25°C° 0.1 mm 3 mps 730 mmHg 67%
17:00 +24°C° 0 mm 3 mps 730 mmHg 70%
18:00 +23°C° 0 mm 2 mps 730 mmHg 74%
19:00 +21°C° 0 mm 2 mps 730 mmHg 78%
20:00 +20°C° 0 mm 2 mps 730 mmHg 80%
21:00 +19°C° 0 mm 2 mps 730 mmHg 83%
22:00 +18°C° 0 mm 2 mps 731 mmHg 85%
23:00 +18°C° 0 mm 2 mps 731 mmHg 86%
Show more

We Need Your Consent

Meteoprog and our Service Providers may store and access personal data such as cookies, device identifiers or other similar technologies on your device and process such data to personalise content and ads, as well as provide social media features and to analyse the traffic.

  • Store and/or access information on your device

    Cookies, device identifiers or other information can be stored or accessed on your device for the purposes indicated above.

  • Personalised ads and content, ad and content measurement, audience insights, and products development

    Ads and content can be personalised based on a profile. More data can be added to better personalise ads and content. Ad and content performance can be measured. Insights about the audience who saw the ads and content can be derived. Such data can be used to develop or improve user’s experience, systems and software.

By clicking ‘I Agree’ you will allow the use of indicated cookies, device identifiers, web beacons or other similar technologies. Your settings can be changed in the browser on your device.

For certain purposes, legitimate interests may be relied on, rather than consent. You can read more about this in our Privacy and Cookie Policy.